GUOWANG

operational
NORAD ID: 66919 Country: Unknown
LEOCIRCULAR

关于 GUOWANG

正在加载描述...

实时位置

正在加载3D地球...

即将过境

高度历史

Altitude vs Time

uPlot chart will show altitude changes over time

两行轨道根数

1 66919U 25285E 25340.94265942 -.00000139 00000-0 81603-5 0 9995
2 66919 50.0062 140.9430 0008024 272.1342 87.8645 14.06218665 98
Epoch: Dec 6, 2025 • Age: 11 hours

当前状态

高度 881.9 km
速度 7.41 km/s
星下点 -44.53°S, 147.41°E
类型 other

大型星座

Loading constellations...